Location: Nashville
(36.1660°N, 86.7840°W)
Time: 19:46:23
(UTC-05:00)

Tiros 1 - Pass Details

Date: 29 January 2022
Orbit: 629 x 663 km, 48.4° (Epoch: 27 May)

Event Time Altitude Azimuth Distance (km) Brightness Sun altitude
Rises 20:12:42 0° 234° (SW) 2,974 11.1 -36.8°
Reaches altitude 10° 20:15:02 10° 234° (SW) 2,068 10.2 -37.3°
Enters shadow 20:15:24 12° 235° (SW) 1,927 10.0 -37.4°
